Temperature
22 21 21 21 22 22 23 24 24 24 24 24 24 24 23 22 21 19 18 18 18 18 18 18 18 17 17 17 17 17 17 17 17 17 17 17 17 17 17 17 17 17 17 17 17 17 18 18 18
22 22 21 22 22 22 23 24 24 24 24 24 24 23 22 21 20 19 18 18 18 18 18 18 18 17 17 17 17 17 17 17 17 17 17 17 17 17 17 17 17 17 17 17 17 17 17 17 18
22 22 22 23 23 23 23 24 24 24 24 24 24 23 21 20 19 18 18 18 18 17 17 18 17 17 17 17 17 17 17 17 17 17 17 17 17 17 17 17 17 17 17 17 17 17 17 17 17
22 22 23 23 23 24 24 24 24 24 24 24 23 22 20 19 19 18 18 18 17 17 17 17 17 17 17 17 17 17 17 17 17 17 17 17 17 17 17 17 17 17 17 17 17 17 17 17 17
22 23 23 23 23 24 25 25 25 24 24 24 23 21 19 18 18 18 18 18 17 17 17 17 17 17 17 17 17 17 17 17 17 17 17 17 17 17 17 17 17 17 17 17 17 17 17 17 17
23 24 23 23 23 24 25 25 25 24 24 23 22 21 19 18 18 18 18 17 17 17 17 17 17 17 17 17 17 17 17 17 17 17 17 16 16 16 17 17 17 17 17 17 17 17 17 17 17
23 23 23 23 23 24 24 24 24 24 23 23 23 21 19 18 18 18 18 18 17 17 17 17 17 17 17 17 17 17 17 17 17 17 16 16 16 16 16 16 17 16 16 16 16 17 17 17 17
24 23 23 23 23 23 24 24 24 23 23 23 22 21 19 18 18 18 18 18 18 17 17 17 17 17 17 17 17 17 17 17 17 16 16 16 16 16 16 16 16 16 16 16 16 16 16 16 16
24 23 22 23 23 23 24 24 24 23 22 22 21 20 19 18 18 18 18 18 18 17 17 17 17 17 17 17 17 16 16 16 16 16 16 16 16 16 16 16 16 16 16 16 16 16 16 16 16
24 22 23 24 24 24 24 24 24 23 22 21 20 20 19 18 18 18 18 18 18 18 17 17 17 17 17 17 17 16 16 16 16 16 16 16 16 16 16 16 16 16 16 16 16 16 16 16 16
24 23 24 24 24 24 24 24 24 23 22 21 20 19 19 19 19 18 18 18 18 18 17 17 17 17 17 17 16 16 16 16 16 16 16 16 16 16 16 16 16 16 16 16 16 16 16 16 16
24 24 25 24 24 24 24 24 23 23 22 21 21 20 19 19 19 19 18 18 18 18 17 17 17 17 17 17 17 16 16 16 16 16 16 16 16 16 16 16 16 16 16 16 16 16 16 16 16
24 24 24 24 24 24 23 23 23 22 22 21 21 20 19 19 19 19 18 18 18 18 17 17 17 17 17 17 17 16 16 16 16 16 16 16 16 16 16 16 16 15 15 15 16 16 16 16 16
25 24 24 24 24 24 23 23 23 22 22 21 21 20 20 19 19 19 18 18 18 18 17 17 17 17 17 17 16 16 16 16 16 16 16 16 16 16 16 15 15 15 15 15 15 15 15 15 15
24 24 24 24 24 24 23 22 23 22 22 21 21 20 20 19 19 19 18 18 18 17 17 17 17 17 17 17 16 16 16 16 15 16 16 16 16 16 15 15 15 15 15 15 15 15 15 15 15
25 24 23 24 24 24 23 21 23 22 22 22 21 20 20 20 19 19 18 18 18 17 17 17 17 17 16 16 16 16 16 15 15 15 15 16 15 15 15 15 15 15 15 15 15 15 15 15 15
24 23 23 24 25 24 23 22 23 23 22 22 21 21 20 20 19 19 18 18 18 17 17 17 16 16 16 16 16 16 15 15 15 15 15 15 15 15 15 15 15 15 15 15 15 15 15 15 15
23 24 24 24 24 24 23 23 23 23 23 22 22 21 21 20 19 19 18 18 18 17 17 17 16 16 16 16 16 15 15 15 15 15 15 15 15 15 15 15 15 15 15 15 15 15 15 15 15
25 24 24 24 25 24 23 23 23 23 23 23 22 21 21 20 20 19 18 18 18 17 17 17 16 16 16 16 15 15 15 15 15 15 15 15 15 15 15 15 15 14 14 14 14 14 14 14 14
24 24 24 24 25 24 24 23 23 23 23 23 22 22 21 21 20 19 18 18 18 17 17 17 16 16 16 15 15 15 15 15 15 14 14 14 14 14 14 14 14 14 14 14 14 14 14 14 14
24 24 24 24 24 24 23 22 23 23 23 22 22 22 21 20 20 19 18 18 18 17 17 17 16 16 16 15 15 15 15 14 14 14 14 14 14 14 14 14 14 14 14 14 14 14 14 14 14
23 24 24 24 23 22 23 21 22 23 22 22 22 21 21 20 20 19 19 18 18 17 17 17 16 16 16 15 15 15 15 14 14 14 14 14 14 14 14 14 14 14 14 14 13 13 13 13 13
24 24 24 24 23 22 23 22 22 23 22 22 22 21 21 20 20 19 18 18 18 17 17 16 16 16 16 15 15 15 15 14 14 14 14 14 14 14 14 14 13 13 13 13 13 13 13 13 13
24 24 24 23 22 21 23 23 21 22 22 22 22 21 21 20 19 19 18 18 17 17 17 16 16 16 16 15 15 15 15 14 14 14 14 14 13 13 13 13 13 13 13 13 13 13 13 13 13
24 22 21 21 21 21 24 23 21 22 23 22 21 21 20 20 19 18 18 17 17 16 16 16 16 16 15 15 15 15 15 14 14 14 14 13 13 13 13 13 13 13 13 12 12 12 12 12 12
23 23 21 20 21 22 24 22 21 23 22 22 21 21 20 19 19 18 17 17 16 16 16 15 15 15 15 15 15 15 14 14 14 14 13 13 13 13 13 13 13 12 12 12 12 12 12 12 12
23 23 23 22 22 22 23 22 21 22 22 21 21 20 20 19 18 18 17 16 16 16 15 15 15 15 15 15 14 14 14 14 14 14 13 13 13 13 13 13 12 12 12 12 12 12 12 12 12
24 23 23 22 21 20 22 22 20 20 21 21 20 20 19 19 18 17 17 16 16 15 15 15 15 14 14 14 14 14 14 14 13 13 13 13 13 13 12 12 12 12 12 11 11 11 11 11 11
23 23 22 22 22 21 20 21 22 21 21 20 20 20 19 19 18 17 17 16 15 15 15 14 14 14 14 14 14 14 13 13 13 13 13 13 13 12 12 12 12 11 11 11 11 11 11 11 11
23 23 22 21 21 21 20 20 22 21 21 20 20 19 19 18 18 17 16 16 15 15 14 14 14 14 13 13 13 13 13 13 13 12 12 12 12 12 12 11 11 11 11 11 11 10 10 10 10
Wind_Speed
8 9 6 2 2 0 3 6 7 6 6 8 9 10 11 12 8 8 3 5 9 9 10 10 10 10 10 10 11 11 11 11 11 11 11 11 11 11 11 11 11 12 12 12 11 12 12 12 11
8 5 3 2 1 2 4 6 8 8 7 6 8 10 11 10 9 7 4 6 8 9 10 10 10 10 10 10 10 11 11 11 11 11 11 11 11 11 11 11 11 12 12 11 11 12 11 11 11
9 6 3 2 2 3 5 7 7 8 7 5 6 8 7 6 7 4 5 6 8 9 11 10 10 10 10 9 9 10 10 11 11 11 11 11 11 11 11 12 12 12 12 11 11 11 11 11 11
5 2 2 0 4 5 7 6 6 7 6 6 6 8 7 7 5 5 6 7 9 10 11 10 10 10 9 9 9 9 9 10 11 11 12 12 11 11 12 12 12 13 12 12 11 11 11 10 11
2 2 1 1 3 4 6 6 5 6 5 6 8 9 8 7 8 7 6 7 8 9 10 9 10 10 10 10 9 10 10 10 11 11 11 11 11 11 11 12 12 12 13 12 12 11 11 10 10
2 2 1 1 4 4 5 5 4 7 7 6 8 9 6 7 7 6 7 7 7 8 9 10 10 10 10 10 10 11 11 11 11 10 10 10 10 10 11 11 11 11 12 12 12 11 10 10 9
2 1 0 1 3 4 4 5 4 6 6 4 4 7 7 8 6 6 7 7 7 8 7 7 9 9 10 10 10 11 11 10 10 9 9 9 9 9 10 10 10 10 11 11 11 10 10 9 8
2 1 0 1 3 3 4 4 4 6 5 4 4 6 7 8 6 6 6 6 6 6 6 6 7 8 8 9 9 9 9 8 8 7 7 7 7 8 9 9 9 9 9 9 8 8 8 8 7
2 0 2 2 3 3 4 4 5 5 6 6 7 9 11 11 8 7 5 5 5 5 5 5 5 6 7 8 8 7 7 6 5 5 5 5 5 6 7 9 8 8 7 6 6 5 5 5 5
1 1 2 2 3 3 4 3 3 4 6 7 9 12 13 10 8 7 6 6 5 4 4 4 5 5 5 6 6 4 5 5 3 4 4 3 4 6 8 8 7 6 5 4 3 3 3 2 2
2 2 2 2 3 3 3 2 3 4 4 7 9 11 10 9 7 6 6 6 5 4 4 4 5 5 4 4 4 2 4 3 3 4 4 4 5 6 5 4 4 4 3 2 3 2 1 2 3
2 2 1 2 2 2 2 2 3 4 4 8 9 11 9 7 7 6 5 5 5 5 4 4 3 4 4 4 3 3 3 3 3 4 5 4 3 3 3 3 3 2 2 2 2 0 2 3 4
2 2 2 2 2 2 2 3 3 5 6 8 10 10 8 7 7 6 6 5 6 6 4 4 4 4 4 3 2 4 3 3 4 4 5 6 3 3 3 3 3 3 3 2 2 2 3 4 4
2 2 2 3 3 3 3 3 3 4 5 7 8 8 8 8 7 6 6 5 6 6 6 4 4 4 4 3 3 3 4 5 5 4 5 6 4 3 2 2 2 2 3 3 2 3 4 3 3
4 4 4 4 5 4 3 3 4 6 7 7 8 7 7 7 6 6 6 5 5 6 6 4 4 4 5 4 4 4 4 5 4 4 6 7 6 5 4 3 3 2 4 5 4 5 4 4 4
6 5 4 5 6 5 4 3 5 8 7 7 7 7 7 7 7 6 6 5 5 6 7 5 4 4 5 4 4 3 4 4 4 5 5 7 7 7 5 3 3 4 4 4 3 4 3 3 3
6 5 5 5 6 5 6 4 6 9 9 7 7 8 8 7 7 7 7 6 5 6 7 6 4 4 5 4 4 4 4 4 4 5 4 6 7 7 5 3 3 5 4 3 4 3 3 3 3
4 4 5 4 5 6 6 5 6 8 8 8 8 8 8 9 8 8 7 7 6 5 7 7 5 5 5 3 3 3 4 3 4 4 4 5 6 7 6 4 5 5 4 4 3 4 3 2 2
6 6 5 2 2 4 6 6 7 8 7 7 7 7 8 9 10 9 8 8 7 6 6 7 6 5 4 3 3 3 2 2 3 2 4 4 6 6 4 3 3 4 4 3 3 3 3 2 2
7 7 6 3 3 4 5 6 6 8 8 6 6 7 8 8 9 9 8 8 7 6 5 6 6 5 5 3 3 2 3 2 2 2 3 4 5 5 4 3 2 3 2 3 3 3 2 2 2
7 6 6 5 4 6 6 6 7 7 7 6 5 5 7 9 9 10 9 8 7 6 6 5 6 6 6 5 3 3 2 2 2 2 1 2 4 4 4 3 2 2 2 2 2 2 2 1 2
7 4 6 7 6 5 8 5 6 8 8 8 7 6 6 7 8 9 8 8 8 7 6 5 6 6 6 6 4 4 3 2 2 2 2 1 2 3 3 3 3 2 2 2 2 2 1 1 1
6 6 8 9 9 9 9 6 4 6 7 8 7 7 7 7 7 8 8 8 8 8 6 5 5 5 5 5 5 3 2 2 2 2 2 2 1 2 2 2 2 2 2 2 2 2 2 1 1
6 8 10 9 8 8 9 7 3 5 7 8 8 7 8 8 7 7 7 6 5 6 5 5 4 4 4 4 4 4 3 3 3 3 2 1 1 1 2 2 2 2 1 1 1 1 2 2 1
7 6 4 5 6 6 5 4 2 3 3 5 6 6 6 7 7 7 7 6 5 6 5 5 5 4 3 3 3 3 3 3 4 3 2 2 1 1 0 1 1 1 1 1 1 1 1 2 1
7 7 5 4 4 4 4 2 4 5 5 5 5 6 5 7 7 7 8 7 6 6 5 4 4 3 3 2 2 3 4 2 2 2 2 2 2 1 1 1 1 1 2 2 1 1 2 2 2
7 7 8 9 10 8 3 4 5 5 6 6 5 6 5 6 7 8 8 7 7 6 5 5 4 3 2 2 1 2 3 2 2 2 2 1 1 1 1 1 1 1 1 2 1 1 2 2 2
9 7 6 5 5 6 4 2 4 7 6 6 5 5 5 6 6 8 7 7 6 6 5 4 4 3 2 2 2 2 2 2 2 2 1 1 2 2 1 1 1 1 1 2 2 1 1 2 1
7 8 6 6 6 5 4 1 2 5 6 5 5 5 5 5 6 7 6 6 6 6 6 5 4 3 2 2 2 2 2 2 2 2 1 1 1 2 1 0 1 1 1 2 2 2 2 2 2
7 7 7 5 6 5 5 1 4 6 6 5 5 4 4 5 5 6 6 6 5 5 5 5 4 3 2 2 2 2 2 2 2 2 1 1 1 1 1 0 1 2 2 2 2 2 2 2 2
Wind_Direction
277 254 242 252 254 181 62 66 65 56 61 56 56 63 64 52 54 90 119 81 91 94 95 86 83 77 69 68 68 65 62 61 60 63 67 68 70 71 70 71 69 70 69 68 67 65 65 64 63
278 277 264 245 265 81 75 76 73 67 69 69 67 70 70 65 67 92 88 76 92 95 89 85 85 79 73 69 68 66 63 63 64 63 65 69 72 72 71 72 71 71 70 70 69 69 67 66 65
267 270 278 274 38 53 75 80 80 76 73 70 73 60 57 65 72 85 95 98 90 88 87 87 86 80 75 71 70 70 67 66 65 65 66 68 71 72 72 70 71 70 69 68 69 70 68 66 66
259 261 250 60 59 50 72 87 98 96 80 68 81 75 70 59 78 98 103 98 93 91 91 90 88 82 78 74 74 76 80 76 73 71 72 72 72 76 77 74 70 69 66 66 67 69 68 67 67
241 250 193 110 87 75 71 69 93 97 90 72 80 91 83 75 89 103 98 92 96 95 97 97 95 87 83 78 74 79 87 86 83 80 79 78 75 76 79 77 75 70 68 67 67 68 66 67 67
251 243 190 134 113 87 72 66 79 92 91 88 96 103 95 105 99 101 101 97 98 98 98 103 101 96 90 81 79 86 89 89 86 84 85 83 79 77 79 80 78 73 72 70 69 68 66 68 67
268 300 146 122 102 90 84 65 62 83 86 74 82 99 116 116 111 112 108 105 101 100 101 105 112 106 100 90 85 88 89 88 89 91 91 90 88 85 86 83 83 80 77 74 73 70 68 68 69
286 290 61 68 89 88 88 84 73 70 75 73 75 103 125 134 134 125 114 109 102 102 102 102 108 112 111 104 94 93 93 92 97 102 105 105 100 98 98 94 90 88 85 82 80 76 71 68 69
267 20 59 52 76 95 101 97 89 85 93 78 76 97 122 133 135 124 113 103 91 92 98 103 104 105 106 110 106 107 106 105 114 118 121 125 124 118 110 100 100 94 91 89 86 83 78 74 74
143 80 77 58 77 99 101 112 124 111 104 97 94 100 122 132 135 133 131 123 116 109 102 106 105 95 92 96 111 116 107 118 117 118 138 148 120 105 103 116 111 107 100 96 95 97 97 103 115
122 112 91 70 71 75 92 104 112 126 111 117 123 126 133 138 139 137 136 127 124 115 102 96 101 103 99 96 98 89 99 107 79 64 68 87 92 96 104 120 118 124 122 120 112 109 136 118 91
129 102 100 91 87 84 92 90 84 93 110 124 129 133 141 149 144 142 134 131 126 110 103 100 102 105 102 96 88 74 62 58 52 47 46 74 91 95 94 95 88 92 85 67 99 146 61 73 78
149 136 116 116 120 112 108 100 96 100 113 124 132 137 146 151 144 140 145 140 129 119 107 93 90 88 85 82 84 83 65 55 55 40 42 59 76 86 87 88 76 62 49 53 35 47 50 47 54
144 154 162 160 159 155 150 151 149 141 143 137 136 146 151 143 149 147 146 136 131 127 122 111 103 98 99 95 89 80 74 64 53 32 33 56 66 77 77 71 66 66 53 35 50 49 49 46 50
193 195 202 190 187 176 171 189 176 160 160 158 152 159 149 146 153 150 142 135 132 127 126 124 108 88 88 84 78 77 74 68 55 36 23 41 50 60 64 59 45 50 53 48 44 43 46 44 45
217 219 219 198 190 189 221 217 171 164 174 169 166 164 156 154 158 145 135 131 136 132 126 119 112 99 89 87 79 75 78 72 64 48 28 35 42 47 52 47 42 43 52 54 47 45 35 33 34
229 232 227 196 193 202 215 216 184 173 183 179 179 169 164 159 157 145 142 143 134 130 131 129 126 114 98 93 87 72 74 69 61 54 36 33 40 46 53 42 41 44 48 41 40 42 39 35 31
246 246 237 213 191 210 222 213 191 189 192 189 183 177 171 168 162 155 149 142 138 138 132 135 125 119 110 100 87 76 68 70 65 54 38 39 41 44 48 43 37 42 46 41 38 36 30 34 19
277 278 275 246 197 226 234 212 194 185 195 195 187 181 172 169 157 154 152 151 150 148 145 138 135 128 119 107 104 101 94 84 75 64 50 50 56 51 51 45 41 43 42 33 34 40 23 17 17
267 270 262 243 234 250 240 229 201 192 196 193 188 179 170 165 156 155 158 160 159 152 150 145 142 134 125 118 118 120 110 101 100 73 41 47 56 51 53 59 59 59 51 29 31 41 24 1 6
261 264 277 273 252 252 253 239 211 191 187 187 189 178 166 170 168 164 164 162 156 154 154 148 143 136 132 130 126 120 105 102 103 115 74 44 54 54 48 47 57 57 61 44 35 30 38 10 349
270 266 268 273 266 255 245 246 211 191 182 183 182 177 172 173 164 161 165 163 159 157 156 156 147 146 143 137 140 143 149 158 156 146 136 114 76 68 53 45 50 58 54 40 26 34 28 51 358
272 288 274 265 266 266 257 255 209 181 180 182 183 181 173 165 159 159 161 164 163 157 157 158 148 140 136 145 150 153 154 146 135 123 113 115 102 83 74 74 63 57 44 37 25 24 11 31 34
267 267 261 254 257 255 246 242 224 189 192 181 177 175 168 161 157 153 146 141 138 135 138 140 132 130 136 154 150 155 152 143 127 116 124 121 93 66 51 60 68 69 35 29 27 15 6 356 360
247 262 261 234 226 238 231 224 161 117 129 145 157 158 156 150 149 148 141 137 133 123 128 137 139 139 133 141 141 144 138 144 137 139 138 136 131 100 45 63 79 76 50 39 46 8 354 348 355
244 246 262 277 277 278 240 187 125 118 102 103 125 138 147 147 148 150 143 140 140 134 130 125 129 130 136 153 163 148 131 128 129 137 140 148 147 132 119 87 56 44 43 26 44 18 353 1 5
251 245 259 271 283 282 225 153 145 133 128 126 130 136 147 149 151 148 140 144 144 141 139 135 125 118 129 137 128 120 128 125 120 116 111 128 122 115 99 91 96 71 62 53 47 38 9 11 18
253 271 271 265 280 280 272 212 169 153 147 148 146 142 142 145 145 142 144 149 147 145 144 136 130 137 141 145 134 101 83 79 87 103 106 100 106 105 92 81 69 64 56 48 48 41 25 15 9
233 249 259 263 264 275 286 5 85 136 135 137 132 129 140 145 144 145 145 146 145 144 145 140 139 138 125 112 101 100 96 78 62 55 56 66 81 109 135 174 109 86 65 43 41 22 25 13 11
250 252 257 263 275 285 287 79 64 88 96 97 108 109 124 134 133 130 137 144 143 144 145 142 142 137 130 114 108 108 99 101 99 78 51 47 33 41 82 60 65 59 46 40 35 5 6 6 0
Height
1479 1479 1480 1481 1483 1486 1487 1483 1479 1481 1482 1485 1485 1486 1491 1495 1500 1511 1511 1510 1509 1509 1508 1508 1508 1508 1508 1507 1507 1507 1507 1507 1507 1507 1507 1508 1507 1508 1508 1508 1508 1508 1508 1507 1507 1507 1507 1507 1506
1479 1480 1482 1482 1485 1493 1491 1483 1484 1484 1485 1486 1487 1490 1493 1499 1504 1508 1509 1510 1510 1509 1509 1509 1509 1509 1508 1508 1508 1508 1508 1508 1508 1509 1509 1509 1509 1509 1510 1510 1509 1509 1509 1509 1509 1509 1509 1509 1509
1480 1481 1483 1482 1485 1491 1491 1484 1485 1486 1487 1488 1490 1493 1498 1504 1506 1508 1510 1510 1511 1510 1510 1510 1510 1509 1509 1509 1508 1508 1508 1509 1509 1510 1510 1510 1511 1511 1511 1511 1511 1511 1511 1511 1510 1510 1510 1510 1511
1483 1484 1484 1486 1489 1486 1484 1484 1485 1487 1488 1490 1491 1497 1503 1506 1508 1509 1510 1511 1511 1511 1511 1511 1511 1510 1510 1509 1507 1507 1508 1509 1510 1511 1511 1512 1512 1512 1513 1513 1513 1513 1512 1512 1512 1512 1512 1512 1512
1484 1484 1485 1489 1488 1484 1483 1484 1485 1487 1489 1491 1493 1500 1506 1508 1509 1510 1511 1512 1512 1512 1512 1512 1512 1511 1510 1508 1506 1505 1507 1510 1511 1512 1513 1513 1514 1514 1514 1514 1514 1514 1514 1514 1514 1514 1513 1513 1514
1485 1482 1490 1493 1489 1485 1485 1486 1487 1488 1491 1493 1496 1501 1508 1510 1510 1511 1512 1512 1513 1513 1513 1513 1513 1513 1512 1510 1507 1506 1508 1511 1513 1514 1514 1515 1515 1515 1515 1516 1516 1516 1516 1516 1515 1515 1515 1515 1515
1485 1485 1489 1489 1489 1488 1487 1488 1490 1490 1493 1495 1497 1501 1508 1510 1511 1512 1513 1513 1514 1514 1514 1514 1514 1514 1514 1513 1511 1511 1512 1514 1515 1515 1516 1516 1517 1517 1517 1517 1517 1517 1517 1517 1517 1517 1517 1517 1517
1484 1485 1488 1488 1490 1491 1488 1490 1491 1493 1495 1497 1498 1502 1508 1511 1512 1513 1514 1515 1515 1516 1516 1516 1516 1516 1516 1515 1515 1515 1515 1516 1517 1517 1518 1518 1518 1518 1519 1519 1519 1519 1519 1519 1519 1519 1519 1519 1519
1485 1489 1493 1491 1491 1490 1489 1491 1493 1495 1496 1498 1500 1502 1506 1510 1512 1513 1515 1516 1516 1517 1517 1517 1517 1518 1518 1517 1517 1517 1518 1518 1519 1519 1519 1519 1520 1520 1521 1521 1521 1521 1521 1521 1521 1521 1521 1521 1521
1485 1492 1492 1488 1487 1489 1490 1491 1493 1496 1497 1500 1502 1505 1507 1510 1512 1514 1515 1516 1517 1518 1518 1519 1519 1519 1519 1519 1519 1519 1520 1520 1520 1520 1520 1520 1521 1522 1522 1522 1523 1523 1523 1523 1523 1523 1523 1523 1523
1485 1489 1488 1488 1488 1490 1491 1492 1493 1495 1498 1501 1503 1506 1508 1510 1512 1514 1515 1516 1517 1518 1519 1520 1520 1521 1521 1521 1521 1521 1521 1521 1521 1521 1520 1519 1521 1522 1523 1523 1524 1524 1524 1524 1525 1524 1524 1524 1525
1486 1487 1487 1489 1490 1491 1492 1493 1495 1496 1499 1501 1503 1506 1508 1511 1512 1514 1515 1516 1518 1519 1520 1520 1521 1522 1522 1522 1522 1522 1522 1522 1522 1521 1520 1518 1520 1522 1524 1524 1525 1525 1526 1526 1526 1526 1526 1526 1526
1486 1488 1489 1490 1491 1492 1493 1494 1496 1498 1500 1502 1504 1506 1508 1511 1512 1514 1515 1517 1518 1519 1520 1521 1522 1522 1522 1522 1523 1523 1523 1524 1523 1523 1522 1521 1522 1523 1524 1526 1526 1527 1527 1527 1527 1527 1527 1527 1527
1486 1488 1489 1490 1491 1492 1494 1495 1496 1499 1500 1502 1504 1506 1508 1510 1512 1513 1515 1517 1518 1519 1520 1521 1522 1522 1522 1523 1523 1524 1524 1524 1524 1524 1524 1524 1524 1525 1526 1527 1527 1527 1527 1528 1528 1528 1528 1528 1528
1487 1488 1489 1489 1490 1491 1493 1496 1495 1498 1500 1502 1503 1506 1508 1509 1511 1513 1514 1516 1517 1519 1519 1521 1522 1522 1523 1523 1524 1524 1525 1525 1525 1525 1525 1526 1526 1526 1527 1527 1528 1528 1528 1528 1528 1528 1528 1528 1528
1485 1488 1493 1488 1487 1490 1495 1500 1494 1496 1498 1500 1502 1505 1507 1508 1510 1512 1514 1515 1517 1518 1519 1521 1522 1522 1523 1524 1524 1525 1525 1526 1526 1526 1527 1527 1527 1528 1528 1528 1528 1529 1529 1529 1529 1528 1528 1528 1529
1486 1491 1491 1488 1485 1486 1491 1496 1492 1494 1496 1498 1501 1503 1505 1507 1509 1511 1513 1515 1516 1518 1519 1520 1521 1522 1523 1524 1525 1525 1526 1526 1527 1527 1527 1528 1528 1528 1528 1528 1529 1529 1529 1529 1529 1529 1529 1529 1529
1489 1487 1486 1486 1483 1484 1488 1490 1489 1491 1493 1495 1498 1500 1503 1505 1508 1510 1512 1514 1516 1518 1519 1520 1521 1522 1523 1524 1525 1525 1526 1526 1527 1527 1528 1528 1528 1529 1529 1529 1529 1529 1529 1529 1529 1529 1529 1529 1529
1480 1483 1485 1483 1480 1483 1486 1487 1487 1488 1490 1492 1495 1497 1500 1503 1506 1508 1511 1513 1515 1517 1519 1519 1521 1522 1523 1523 1524 1525 1526 1526 1527 1528 1528 1529 1529 1529 1529 1529 1529 1529 1529 1529 1529 1529 1529 1529 1529
1480 1483 1484 1481 1478 1481 1483 1484 1484 1485 1487 1490 1492 1495 1498 1501 1504 1506 1509 1512 1514 1516 1517 1519 1520 1521 1522 1523 1524 1525 1526 1526 1527 1528 1528 1529 1529 1529 1529 1529 1529 1529 1529 1529 1529 1529 1529 1529 1529
1480 1483 1483 1483 1480 1479 1483 1487 1484 1483 1485 1488 1490 1492 1495 1498 1501 1505 1507 1510 1512 1514 1516 1518 1519 1520 1521 1522 1524 1525 1525 1526 1527 1527 1528 1528 1529 1529 1529 1529 1529 1529 1529 1529 1529 1529 1529 1529 1529
1483 1477 1479 1481 1485 1488 1483 1495 1483 1479 1482 1485 1488 1491 1494 1496 1499 1502 1505 1508 1510 1512 1514 1517 1518 1519 1520 1522 1523 1523 1524 1525 1526 1527 1527 1528 1528 1528 1528 1528 1528 1529 1529 1529 1529 1529 1529 1528 1528
1478 1476 1477 1479 1483 1486 1481 1487 1485 1477 1482 1483 1485 1488 1491 1494 1497 1500 1503 1506 1508 1510 1513 1515 1517 1518 1520 1520 1521 1522 1523 1524 1525 1526 1527 1527 1527 1527 1527 1527 1527 1528 1528 1528 1528 1528 1528 1528 1528
1475 1477 1476 1477 1482 1493 1479 1484 1488 1479 1479 1479 1482 1485 1489 1492 1495 1498 1501 1504 1506 1509 1511 1513 1515 1517 1518 1519 1520 1521 1522 1523 1524 1525 1525 1526 1526 1526 1527 1527 1527 1526 1527 1527 1527 1527 1527 1527 1527
1475 1484 1493 1494 1495 1489 1470 1478 1484 1474 1473 1476 1480 1484 1487 1490 1494 1497 1499 1502 1505 1506 1509 1511 1513 1514 1516 1518 1519 1519 1520 1521 1522 1523 1524 1524 1525 1525 1525 1525 1525 1525 1525 1525 1525 1525 1525 1525 1525
1476 1480 1496 1502 1496 1483 1471 1479 1479 1472 1474 1476 1480 1483 1486 1489 1492 1495 1498 1500 1503 1504 1507 1509 1511 1513 1514 1516 1517 1518 1519 1520 1521 1522 1522 1523 1523 1523 1524 1524 1524 1524 1524 1524 1524 1523 1524 1524 1524
1476 1476 1474 1483 1482 1484 1476 1477 1475 1472 1475 1477 1480 1483 1486 1489 1491 1494 1496 1499 1502 1504 1505 1507 1509 1511 1512 1514 1515 1516 1517 1518 1519 1520 1520 1520 1521 1522 1522 1522 1522 1522 1522 1522 1522 1522 1522 1522 1522
1471 1472 1477 1483 1493 1494 1481 1477 1481 1477 1476 1477 1480 1483 1485 1488 1491 1493 1496 1498 1500 1502 1504 1506 1508 1509 1511 1512 1513 1514 1515 1516 1517 1517 1518 1519 1519 1519 1520 1520 1520 1520 1520 1520 1520 1520 1520 1520 1520
1472 1474 1474 1478 1479 1490 1494 1488 1468 1471 1474 1477 1479 1482 1485 1487 1490 1492 1495 1498 1500 1502 1503 1505 1506 1508 1509 1510 1511 1512 1513 1513 1514 1515 1516 1516 1517 1517 1517 1518 1518 1518 1518 1518 1518 1517 1518 1517 1517
1467 1469 1474 1485 1484 1480 1486 1488 1469 1471 1474 1477 1480 1483 1485 1487 1489 1492 1494 1496 1499 1500 1502 1503 1505 1506 1507 1508 1509 1510 1511 1511 1511 1512 1513 1514 1514 1514 1515 1515 1515 1516 1516 1516 1516 1515 1515 1515 1515